Wind_Speed
26 25 25 25 25 27 28 30 31 33 33 33 33 33 33 32 31 29 28 27 25 24 22 20 19 19 20 19 18 20 22 22 20 19 18 17 17 16 15 14 13 12 12 12 13 13 12 12 13 13 14 15 15 15 15 16 17 17 18 18 19 20 19 19 21 21 20 19 19 19 19 20 19 19 22 22 22 22 23 24 25 25 25 25 25
25 25 25 25 26 27 28 30 32 33 34 35 35 36 36 34 33 31 29 28 27 26 25 23 22 23 23 22 21 21 22 22 21 19 18 18 17 15 14 14 13 12 12 12 13 13 12 13 14 15 16 17 16 16 16 17 17 18 19 20 20 20 21 20 20 21 21 22 22 21 21 21 20 19 22 23 23 23 25 26 26 26 26 26 26
24 25 25 25 26 27 29 30 31 32 33 34 36 38 38 36 35 32 31 31 30 28 28 28 27 26 25 24 22 21 22 22 21 19 18 18 17 15 13 13 12 11 11 12 13 13 13 14 14 16 17 18 18 18 18 18 19 19 20 21 21 20 21 21 21 21 22 22 23 23 22 23 22 21 22 23 24 24 25 27 27 27 27 27 27
25 25 26 26 26 27 28 30 31 32 32 33 36 39 40 38 36 34 32 32 32 32 32 33 32 30 28 25 23 22 22 23 22 20 19 18 16 13 12 11 11 11 11 12 13 14 15 15 16 18 18 18 18 19 19 19 20 21 21 21 21 20 21 22 22 22 22 22 22 21 23 25 25 23 22 23 25 26 26 27 27 27 27 28 28
27 27 27 27 27 27 28 30 31 32 31 31 33 37 40 39 37 37 37 37 38 37 36 37 36 33 30 27 24 23 22 23 24 22 20 18 14 12 11 10 11 12 13 14 15 15 16 17 18 20 20 19 18 18 19 20 21 22 22 21 21 21 21 23 24 24 23 23 22 21 22 25 27 26 25 25 26 27 27 27 27 28 28 28 28
28 28 28 27 27 28 30 31 31 30 31 32 32 35 39 37 34 34 36 40 44 42 37 36 38 36 32 29 26 24 22 23 24 22 20 17 15 12 11 11 11 13 14 15 17 17 18 18 20 21 22 21 20 19 19 20 20 21 22 22 22 22 22 23 24 25 25 23 24 23 22 24 27 28 27 27 27 27 27 28 28 28 29 29 29
29 29 28 27 28 30 31 31 31 31 32 33 34 36 38 38 35 32 32 36 43 44 38 35 38 39 35 30 27 24 22 22 23 22 19 18 16 13 12 12 13 14 15 16 18 19 19 20 21 23 23 23 23 21 20 19 19 20 21 22 22 22 22 22 23 25 25 24 24 24 24 24 26 27 27 27 27 27 27 27 29 29 29 30 31
29 28 27 27 28 28 30 31 32 32 33 34 36 36 36 35 35 34 34 35 39 41 38 35 37 38 36 32 27 25 24 24 24 22 20 18 16 13 13 13 14 16 17 18 19 20 21 22 23 24 25 26 25 24 22 20 20 20 20 21 22 22 21 22 23 24 25 25 25 25 26 25 25 26 26 26 27 27 27 28 30 31 30 31 31
29 28 27 28 28 26 28 30 32 33 35 36 37 38 34 32 32 34 36 37 38 39 38 36 36 37 35 32 28 27 26 24 22 22 20 19 16 14 14 15 16 18 19 20 21 22 23 25 26 26 27 27 27 25 24 23 22 21 21 21 22 22 22 22 23 24 25 25 25 26 27 26 26 26 26 27 28 28 29 30 31 31 31 31 31
28 28 28 29 29 27 28 30 30 32 34 35 35 36 33 30 30 32 35 37 37 39 39 36 35 37 36 32 30 29 26 22 20 21 20 18 16 15 16 17 19 20 22 23 24 24 25 27 28 28 28 28 29 28 27 25 25 24 22 22 23 23 23 23 24 26 27 27 26 26 27 27 26 27 28 28 29 30 30 31 32 32 32 32 32
29 30 31 31 30 29 31 31 30 29 30 31 31 32 30 28 26 27 31 35 36 38 39 37 36 38 37 33 32 30 25 20 20 21 20 18 16 17 18 19 21 22 24 25 26 26 27 28 28 27 28 29 30 31 30 28 27 27 25 24 24 24 24 25 26 27 28 28 28 28 29 29 27 28 29 29 30 31 32 32 34 33 32 33 34
30 30 31 31 31 31 32 32 30 29 29 30 30 29 30 30 28 26 28 31 34 36 38 37 37 38 38 35 32 29 25 22 23 22 20 19 18 19 20 21 23 24 26 28 28 29 30 30 29 29 29 30 30 31 32 30 29 28 27 26 26 26 27 28 29 28 29 30 30 30 30 30 29 28 29 30 31 33 34 34 34 33 33 34 35
29 29 29 30 30 31 32 31 30 29 30 30 28 28 30 31 30 28 26 28 31 34 36 37 36 36 38 37 33 29 26 25 25 22 20 19 19 21 22 23 24 26 28 30 30 31 32 32 33 32 31 32 32 32 32 32 31 29 28 27 27 28 29 30 31 31 30 32 33 33 31 30 30 30 30 31 32 34 36 36 34 34 35 35 36
25 25 25 25 26 27 28 28 28 27 28 29 28 28 30 30 29 28 28 29 31 33 36 38 36 34 36 37 34 29 27 27 25 21 19 19 20 23 24 25 26 27 29 30 31 32 33 34 35 33 32 33 34 33 32 32 33 32 30 30 30 29 31 32 33 32 32 33 34 33 32 31 32 32 31 32 34 35 36 38 37 37 36 37 38
21 20 21 22 23 24 25 26 26 26 27 28 29 28 29 29 29 28 29 31 32 34 37 38 35 32 36 37 33 29 27 27 25 21 19 20 22 25 26 26 27 28 29 30 32 33 34 35 35 34 34 34 33 33 33 33 32 31 31 31 31 31 32 33 33 34 33 33 33 33 33 33 34 33 32 33 36 36 37 38 39 38 38 39 38
18 19 20 21 22 23 24 26 26 27 28 29 30 29 29 29 29 29 29 30 33 35 37 38 34 32 36 37 32 27 28 28 25 21 20 22 25 27 27 27 28 30 30 31 32 34 34 34 34 34 34 33 32 32 32 31 31 31 31 32 32 32 33 34 34 35 34 33 34 35 36 36 35 34 33 34 37 37 37 38 38 37 38 40 38
19 20 20 21 21 22 23 25 26 28 29 30 30 30 30 30 31 30 28 30 34 35 35 37 33 32 36 36 30 27 28 28 25 22 21 24 27 28 28 28 29 30 31 31 33 33 33 33 33 33 33 32 32 32 32 32 33 33 33 33 32 31 32 33 34 34 33 32 33 35 36 37 36 35 35 36 36 37 37 37 36 36 37 38 38
20 21 21 22 21 20 20 21 24 27 28 29 30 30 30 31 31 31 28 28 33 35 35 35 30 30 36 35 29 28 28 27 26 23 23 26 28 27 28 28 28 29 30 32 32 32 33 33 33 33 33 33 32 32 33 34 34 33 33 33 32 31 29 30 32 33 32 31 33 35 35 35 36 36 36 36 36 36 37 37 36 36 36 36 37
21 22 22 22 20 19 18 19 22 25 26 27 28 28 30 31 31 30 27 27 31 35 36 32 27 31 37 34 29 29 28 27 26 25 25 28 28 26 27 27 26 26 29 31 31 31 33 33 32 31 32 32 32 32 32 32 32 32 32 32 32 30 29 29 31 31 32 33 34 36 35 35 35 36 37 36 35 34 34 35 35 34 34 35 38
21 21 21 21 20 19 19 20 22 24 26 27 27 29 31 31 31 31 28 27 31 35 35 30 28 34 38 34 32 33 31 28 28 26 26 27 25 24 25 24 23 24 26 28 29 30 31 32 31 30 30 31 31 31 30 30 30 30 31 31 31 30 29 29 29 30 31 33 34 34 35 35 36 37 38 36 35 33 32 32 33 34 35 38 41
21 21 20 20 19 18 18 19 22 24 26 28 29 30 31 32 32 31 29 29 32 34 34 31 31 35 37 35 35 34 30 28 28 26 25 24 23 23 23 22 21 23 24 25 27 29 30 31 31 30 29 30 31 31 30 30 30 30 30 29 29 28 27 28 28 29 31 32 33 34 34 35 36 37 37 36 34 32 31 32 34 37 39 41 42
21 20 19 18 17 18 19 21 23 25 27 28 29 29 30 31 32 32 30 31 33 34 33 31 32 35 38 37 34 31 29 28 28 26 23 22 22 21 22 22 22 22 23 25 26 27 29 30 31 31 30 31 32 32 32 31 31 30 29 28 28 27 27 27 28 30 31 32 33 35 35 35 36 36 35 34 32 31 31 32 34 37 39 40 42
21 19 18 19 19 20 21 23 24 26 27 28 28 29 30 30 30 31 31 31 33 33 31 31 33 37 39 36 32 30 30 30 29 25 22 21 20 20 22 24 24 24 25 25 26 27 29 31 31 32 32 33 34 34 33 32 31 30 29 28 28 27 27 28 29 31 33 33 34 35 35 35 35 34 32 32 31 31 32 34 35 36 38 39 40
22 21 22 23 23 23 23 24 25 27 27 28 29 30 29 28 28 29 31 31 32 32 31 32 34 37 36 33 30 30 31 29 25 22 21 21 21 21 24 25 25 25 26 27 27 29 30 32 33 33 33 34 34 33 33 32 31 30 29 28 28 28 28 29 30 32 33 34 35 35 34 34 33 33 31 31 31 32 33 34 36 36 37 38 39
24 24 25 26 26 25 25 26 27 28 28 29 30 30 28 27 28 29 30 31 32 33 33 33 34 34 32 30 30 31 30 25 21 21 23 24 24 24 24 25 26 27 28 28 29 30 31 32 33 33 33 33 33 33 32 31 31 30 29 29 29 30 30 30 31 32 33 33 33 33 32 32 32 32 31 30 31 32 33 35 35 35 36 37 38
26 27 27 28 27 27 27 27 28 29 28 29 30 30 28 27 27 28 30 32 34 35 34 33 32 31 30 29 29 28 24 21 22 26 28 28 26 24 24 25 27 28 29 30 32 32 33 33 32 32 32 32 32 32 32 31 31 30 29 29 30 30 31 31 31 32 31 30 30 30 30 30 30 30 30 30 31 32 33 34 35 34 35 36 37
29 29 29 28 26 26 26 27 27 27 27 28 30 30 28 28 27 28 31 34 36 35 32 30 28 28 28 27 25 23 22 25 30 33 32 28 24 22 24 26 27 28 30 32 33 34 33 33 33 33 32 31 31 31 31 31 30 30 29 28 28 29 30 30 30 30 28 27 26 27 27 28 28 29 29 30 31 32 33 34 34 34 34 35 35
29 30 30 27 25 26 26 26 26 25 25 28 29 29 29 29 28 29 32 35 35 33 29 27 27 27 25 25 24 25 28 32 33 32 29 25 23 24 25 26 28 30 32 33 34 35 34 33 32 31 30 29 29 30 30 29 28 28 27 27 27 28 28 28 27 26 25 24 25 25 26 27 28 29 30 30 31 31 32 32 33 33 32 33 32
30 29 28 26 25 26 26 25 24 24 25 27 27 27 28 28 27 29 33 35 32 29 26 26 28 27 25 24 25 27 29 31 29 26 24 24 25 26 27 28 31 32 33 33 34 35 34 31 28 26 26 26 26 26 27 27 25 25 26 26 26 27 26 24 24 23 23 23 24 25 26 28 29 29 30 30 29 30 30 31 31 30 30 29 29
27 26 25 25 25 25 24 23 23 23 24 26 26 25 28 29 28 30 33 33 30 26 25 27 28 26 24 24 25 26 28 29 27 25 24 25 26 27 29 31 33 34 34 34 33 33 31 28 25 23 23 23 23 23 25 26 25 26 26 25 24 23 23 22 22 21 22 23 24 25 27 28 29 29 29 28 28 28 28 28 27 27 27 26 26
24 24 24 24 24 23 22 22 22 21 22 24 24 24 26 27 28 31 32 30 27 26 26 26 26 24 24 25 26 28 29 29 26 25 25 26 27 28 30 32 34 35 35 34 32 30 28 24 22 22 22 21 21 22 25 27 28 27 25 23 22 21 21 21 21 21 22 23 25 27 28 28 28 28 27 27 26 25 24 24 24 24 24 24 24
23 23 23 23 23 22 21 21 20 18 19 22 22 22 24 24 24 25 25 23 21 22 23 23 23 24 25 27 28 29 30 28 26 26 27 27 28 30 33 35 36 35 34 32 30 27 24 22 21 22 22 22 22 25 27 27 27 25 22 20 21 21 21 21 21 21 23 25 26 27 27 27 26 25 24 24 23 21 21 21 21 22 22 22 23
22 23 23 23 23 22 20 18 16 17 20 22 23 24 25 24 21 19 19 18 18 19 20 21 23 26 27 29 29 30 29 28 27 27 27 28 30 34 36 36 36 34 32 31 28 25 22 21 22 23 24 24 25 27 27 24 22 21 20 20 21 22 23 23 23 23 24 25 26 27 26 25 24 22 20 20 20 19 19 19 19 20 21 21 21
21 22 22 22 22 21 19 17 16 18 21 23 23 22 22 21 18 16 16 17 18 20 21 24 27 28 29 29 29 29 28 28 27 28 29 30 33 35 36 35 34 32 31 29 27 24 22 22 23 24 25 26 25 26 25 22 20 20 21 21 22 23 24 24 23 24 24 25 26 25 24 22 20 19 17 17 17 17 18 18 20 20 21 21 21
20 21 21 20 20 18 16 16 16 18 20 21 20 18 17 17 16 16 17 19 21 24 26 27 28 28 28 28 28 28 28 28 28 29 31 33 34 35 36 35 33 32 30 27 25 24 23 23 24 25 25 25 24 23 22 20 20 20 21 21 22 23 24 24 24 24 24 24 24 23 20 18 17 16 16 16 16 16 17 18 19 20 21 21 21
18 19 20 19 17 15 13 13 15 16 17 17 16 15 15 16 17 19 20 22 24 26 27 28 28 28 28 28 28 28 28 28 30 31 33 34 34 35 34 33 32 31 30 27 25 24 23 24 25 25 24 24 23 22 21 20 20 20 20 21 22 23 24 24 24 23 23 22 21 19 17 15 14 14 15 16 16 17 18 18 19 20 21 21 21
18 19 20 19 16 13 12 12 12 13 15 16 16 16 18 19 21 22 22 23 24 25 25 26 27 28 28 27 27 28 29 30 32 33 34 35 34 33 32 30 29 29 29 27 26 24 23 24 24 24 24 23 22 21 20 20 19 20 20 21 23 24 24 24 23 22 21 19 17 15 14 13 13 13 14 16 17 17 18 18 18 19 20 20 21
19 20 19 18 15 13 11 11 10 11 14 16 18 20 22 22 23 23 24 24 24 24 24 24 25 26 26 26 26 28 29 30 32 33 33 33 32 31 30 29 28 27 27 27 25 23 23 23 23 22 22 22 21 20 19 19 19 20 22 23 24 23 23 23 22 20 18 16 14 13 13 12 13 13 15 16 18 18 18 18 18 18 19 20 21
20 20 19 18 16 15 14 13 12 13 15 17 19 21 22 23 24 25 25 25 25 25 25 25 25 26 26 25 26 27 29 30 32 32 32 31 30 28 28 28 27 27 26 25 23 22 22 22 22 22 21 21 20 19 19 19 20 21 23 24 24 23 22 21 20 17 15 13 12 12 12 13 13 15 16 17 18 18 18 18 17 17 18 18 20
20 20 19 18 18 18 17 16 15 16 17 19 20 22 24 25 25 25 25 25 24 25 25 25 26 26 27 27 27 27 28 30 30 30 30 29 28 27 26 26 26 26 24 22 20 20 21 21 22 21 21 20 20 19 19 20 22 23 24 24 22 21 20 19 16 14 12 11 11 12 12 13 15 16 17 18 18 18 17 17 16 16 16 17 19
21 21 20 20 21 21 19 18 18 19 20 21 23 24 25 25 24 24 24 24 24 24 25 25 26 26 26 26 27 27 28 29 29 28 27 26 26 26 25 24 24 23 22 21 19 18 19 21 21 21 21 21 21 21 21 22 23 24 23 22 21 19 18 15 13 12 11 11 11 12 12 14 16 17 18 17 17 17 17 16 15 15 16 17 18
22 21 19 18 19 20 19 19 20 22 23 24 25 24 24 23 23 24 24 24 24 24 24 25 25 25 25 26 26 27 27 27 26 26 25 24 24 24 24 23 22 20 20 20 20 19 18 19 20 21 21 22 22 22 22 23 23 22 21 20 18 16 14 12 11 11 11 11 11 12 13 15 16 16 16 16 16 15 15 15 15 14 15 16 16
21 21 19 18 18 19 20 20 21 21 21 22 22 22 22 23 23 23 24 24 23 23 23 24 25 25 24 25 25 25 25 25 24 24 23 23 22 23 22 22 21 20 19 20 20 20 19 19 20 20 21 21 22 22 22 21 21 20 19 18 16 13 11 10 10 10 10 11 11 12 14 14 15 15 15 15 14 14 14 14 14 14 14 14 15
21 21 21 21 20 19 19 20 20 19 19 20 21 22 22 23 23 23 22 22 22 22 22 23 24 24 23 23 23 23 23 23 22 22 21 21 21 21 21 21 21 20 20 20 20 20 20 20 20 20 20 20 20 20 20 19 19 18 17 15 13 11 10 9 9 9 10 10 11 12 13 13 13 13 13 13 13 13 13 13 13 13 13 13 14
22 22 21 21 21 20 19 20 20 19 20 21 22 21 21 21 21 21 20 20 20 21 21 22 23 22 22 21 21 20 20 21 21 20 20 20 20 20 20 20 21 21 21 20 21 21 21 20 19 19 19 19 19 18 18 18 17 16 15 13 11 10 9 9 9 9 9 10 11 12 12 12 11 11 11 12 12 12 12 13 12 12 11 12 12
23 22 21 21 21 20 19 20 20 20 20 21 21 20 19 19 20 20 19 19 19 19 19 20 21 20 20 20 20 19 19 19 20 20 20 19 20 20 20 21 22 22 22 21 21 21 20 20 19 19 19 18 18 17 17 16 15 14 13 11 10 9 9 8 8 8 9 10 10 11 11 11 11 11 11 11 11 11 12 12 12 12 11 11 11
22 21 21 21 20 19 19 19 18 18 19 19 19 19 20 20 19 19 18 18 17 17 17 19 20 20 20 20 20 20 20 20 20 21 21 21 21 21 22 23 23 23 23 22 21 20 19 18 18 18 18 18 17 16 16 16 15 13 12 10 9 9 9 8 8 8 9 9 9 10 10 10 10 10 11 11 11 11 11 11 12 12 11 10 10
19 19 20 20 19 18 18 18 17 17 18 18 19 19 19 19 18 18 17 17 17 17 18 19 19 19 19 20 20 20 21 21 22 22 23 23 23 23 23 23 22 23 23 22 21 20 19 17 17 17 17 17 16 16 16 15 14 13 11 11 10 9 9 8 8 8 8 8 9 9 9 10 10 10 10 10 10 10 11 11 11 11 10 9 9
15 15 17 18 18 18 18 17 17 18 19 19 19 19 18 18 17 17 17 17 17 17 17 18 18 19 20 20 21 21 21 22 22 23 23 24 24 24 23 22 22 22 22 22 21 20 19 17 17 17 17 16 16 16 16 15 14 13 11 11 10 9 9 8 8 8 8 8 9 9 9 9 9 9 9 9 9 9 10 10 10 10 10 9 8
13 14 15 17 17 17 17 17 18 19 19 19 18 17 16 16 16 16 16 16 17 17 18 18 18 18 18 19 21 22 22 22 23 23 23 23 24 25 23 21 20 20 21 22 21 20 19 18 17 17 17 17 16 16 16 15 14 13 12 11 11 10 9 9 9 8 8 9 9 9 9 9 9 9 8 8 8 8 9 9 10 9 9 9 8
13 15 16 17 17 17 18 18 18 17 17 16 15 14 14 15 15 15 15 15 15 15 15 16 16 16 17 18 20 22 23 23 23 23 23 23 24 25 24 22 20 20 21 22 21 20 19 18 18 17 17 17 17 16 16 15 15 14 13 12 12 11 10 10 9 9 8 9 9 9 9 9 8 8 7 7 7 7 8 8 9 9 9 8 8
Wind_Direction
227 226 226 227 227 227 228 229 231 232 233 234 234 236 238 239 240 241 243 247 251 256 260 264 274 285 291 294 299 307 313 312 308 303 303 306 307 306 304 302 303 303 305 306 306 310 316 318 318 313 308 306 304 302 302 302 303 302 301 301 300 298 296 293 293 296 297 295 293 295 295 292 291 294 294 292 290 289 288 290 290 288 287 287 285
230 229 229 230 230 231 232 232 234 236 237 237 239 240 241 241 242 242 245 249 253 257 260 263 273 284 287 288 293 302 308 308 304 300 301 304 306 305 303 302 304 307 309 310 312 315 320 323 321 317 313 312 308 305 301 298 296 296 298 298 297 295 295 294 294 296 298 297 296 298 296 291 293 297 295 292 289 285 286 287 287 287 287 286 285
229 228 229 233 236 237 238 237 236 239 241 242 243 244 244 244 245 246 248 251 254 257 261 265 273 282 283 282 287 295 302 302 299 298 300 302 303 304 304 304 307 309 312 314 318 321 325 327 324 319 317 316 312 308 303 298 295 297 299 298 297 297 297 297 296 296 298 299 299 301 298 295 298 300 297 293 291 288 287 286 285 286 287 286 285
227 226 229 236 241 241 239 238 239 241 245 247 246 245 244 245 245 247 250 252 251 252 259 265 270 275 276 278 282 288 296 298 295 296 298 298 300 301 301 302 303 307 312 316 319 321 323 325 321 317 317 317 314 310 305 302 300 300 301 301 300 301 300 299 297 296 297 299 299 299 298 298 300 300 298 296 293 292 291 289 288 288 287 287 287
230 229 232 240 244 241 238 239 242 244 249 254 253 249 248 248 247 247 250 252 251 253 259 262 263 267 270 273 277 282 290 294 292 293 294 293 293 292 291 294 299 305 311 314 316 317 319 320 318 315 315 315 314 311 307 305 305 304 305 305 304 303 301 300 298 297 297 298 298 297 296 297 299 299 300 301 298 296 295 294 293 291 289 289 289
234 234 236 242 243 240 240 244 249 252 255 258 260 259 260 264 264 261 258 257 257 262 266 262 258 261 266 267 271 277 284 290 291 290 289 286 284 284 285 291 298 304 307 309 311 314 316 317 317 316 316 316 315 313 309 308 309 308 307 306 305 303 301 300 299 298 298 298 298 298 295 295 298 300 302 302 300 298 298 296 294 293 292 292 291
235 237 239 241 241 242 245 250 254 260 263 262 263 264 268 272 273 272 270 264 261 264 268 262 254 256 261 264 268 273 277 285 289 287 284 280 278 280 284 291 297 301 304 305 307 311 312 313 315 316 316 317 318 316 313 311 311 310 310 307 304 301 298 297 297 297 298 297 297 296 294 293 295 297 300 302 301 300 300 297 296 295 295 293 292
236 240 242 242 243 245 249 253 257 264 268 268 269 270 274 278 276 271 270 268 264 264 266 265 259 257 259 262 264 266 272 281 285 282 277 274 274 276 282 291 298 301 304 305 305 308 309 310 313 314 314 315 318 318 315 312 309 308 307 305 301 298 294 293 294 293 293 294 294 294 293 293 294 296 298 299 299 300 299 296 296 298 298 297 296
238 241 244 246 246 247 249 254 258 263 266 269 272 274 279 283 280 274 271 270 267 264 264 266 264 261 260 260 258 261 270 279 279 274 271 270 270 276 284 292 297 300 302 304 305 306 306 308 310 310 309 311 315 316 314 310 306 303 302 301 298 294 290 290 290 290 289 290 291 292 292 293 295 296 296 297 297 296 296 295 296 297 298 298 297
238 240 243 246 248 248 249 251 253 256 261 265 270 274 278 278 274 271 270 270 268 264 262 265 265 262 261 259 255 259 268 274 270 266 265 267 270 279 287 291 296 299 301 303 304 305 305 307 308 307 308 310 312 314 313 310 307 303 298 297 297 294 290 290 290 288 288 288 287 288 288 290 293 294 295 296 296 295 296 296 296 297 298 296 296
239 242 245 247 249 250 251 253 252 252 256 260 264 270 273 272 268 265 265 267 266 263 261 263 263 261 261 257 254 258 264 265 263 262 262 265 273 281 286 291 295 298 300 301 303 304 304 306 306 305 307 309 309 310 312 311 310 308 302 296 296 295 293 292 290 288 286 286 286 286 287 290 292 294 295 296 297 296 296 296 296 297 297 295 296
243 246 248 250 253 254 256 258 257 255 256 258 260 262 267 270 270 265 262 261 262 261 260 261 260 259 258 256 254 257 258 255 256 259 259 265 274 280 285 290 294 297 300 301 303 304 304 304 303 301 303 306 306 307 309 309 308 308 305 299 295 294 292 290 290 289 286 286 286 286 287 290 292 294 297 298 297 296 296 297 296 295 294 295 297
246 249 252 254 257 258 259 260 260 260 260 259 258 260 265 271 273 270 265 259 257 258 259 259 259 256 254 253 253 256 255 252 251 255 258 265 273 279 283 289 293 297 299 301 303 303 302 302 301 300 302 303 303 305 307 307 306 306 305 301 296 293 289 287 287 289 288 287 287 287 288 289 291 295 298 298 297 297 298 298 295 293 294 296 297
247 251 256 259 262 263 263 264 263 263 263 262 262 264 268 272 274 275 271 262 256 256 257 258 258 254 250 249 250 254 254 250 248 251 257 265 273 277 282 287 291 296 299 300 301 300 299 300 301 301 302 301 301 303 305 305 304 302 301 300 300 296 290 286 285 286 287 286 287 287 287 288 291 295 299 300 299 299 299 297 294 294 296 296 296
252 257 263 267 268 268 268 267 266 266 265 266 267 270 272 274 275 275 271 264 258 256 256 258 257 249 244 245 249 252 249 245 246 251 257 265 271 275 280 287 292 295 298 298 298 297 297 298 299 300 300 297 298 302 303 302 302 300 297 298 301 301 295 288 283 283 285 285 286 286 286 287 290 294 298 300 300 299 297 295 295 297 298 297 297
260 266 270 271 271 271 269 267 267 267 269 271 272 274 274 274 275 275 270 263 260 257 255 258 255 243 239 244 248 246 242 242 246 250 255 263 268 273 280 287 292 295 297 297 297 298 297 297 297 298 297 295 296 300 301 300 300 300 298 298 299 298 294 288 282 282 284 284 285 286 286 287 290 292 297 299 298 297 295 294 296 299 299 299 299
265 269 271 273 273 274 272 270 269 269 270 273 275 276 276 274 275 276 271 262 261 259 255 256 252 238 235 241 244 240 238 242 246 249 255 262 268 275 283 289 291 295 297 298 299 299 297 295 297 297 295 294 296 298 298 298 299 299 298 297 295 292 289 285 280 279 280 281 282 284 285 287 290 293 297 299 298 297 297 297 299 300 299 298 298
266 269 272 274 275 275 277 277 275 274 276 278 278 277 277 275 275 276 270 259 258 259 256 255 248 235 234 239 240 236 235 240 245 249 256 263 270 279 286 290 293 297 299 298 297 296 295 296 298 298 297 296 296 295 296 297 298 297 296 295 293 290 287 283 280 280 282 283 283 284 285 288 290 292 296 298 298 297 297 299 300 299 297 296 297
266 270 272 274 274 275 276 278 278 279 280 281 279 278 278 277 275 273 267 258 254 254 255 252 241 232 234 236 235 233 231 236 243 248 256 265 273 282 287 289 294 298 298 297 298 298 299 299 300 298 297 296 295 295 296 297 296 295 295 293 291 289 286 281 280 282 284 286 288 289 291 291 291 292 295 298 297 295 295 296 297 297 297 296 297
268 270 271 272 274 275 275 276 277 280 281 281 279 279 278 276 275 271 265 257 252 250 250 246 236 233 235 233 230 230 229 234 242 249 257 267 277 283 284 288 295 297 298 301 304 305 304 303 302 299 296 294 294 296 298 298 297 296 294 292 290 288 285 281 280 282 284 287 290 292 293 293 293 295 297 298 296 295 294 295 295 296 295 295 296
266 268 270 273 275 277 278 279 280 281 282 280 279 279 278 275 272 269 262 252 248 248 246 240 233 232 234 231 229 229 231 236 245 252 261 270 276 278 280 286 292 297 301 308 312 311 307 305 303 300 297 295 296 298 300 300 299 297 294 291 288 287 283 281 281 283 286 289 291 291 293 294 295 297 297 295 294 293 292 292 293 294 295 295 295
264 266 270 276 281 285 285 284 284 283 281 280 279 278 277 273 269 266 258 247 244 244 240 231 226 227 232 233 230 229 233 241 249 255 262 267 268 270 277 285 291 296 302 308 312 312 309 306 303 301 300 299 299 300 300 300 298 296 294 290 287 285 284 282 283 285 287 290 292 293 294 295 296 296 294 293 292 291 291 293 294 295 295 294 293
260 263 268 276 285 291 290 287 287 286 284 282 280 277 276 272 266 261 254 246 243 239 229 220 221 227 233 233 229 229 236 244 249 253 256 258 261 270 282 288 290 295 300 304 309 310 310 309 306 303 302 300 299 299 298 298 296 295 291 287 285 286 287 287 288 287 288 291 293 295 297 296 295 294 294 294 293 293 294 296 296 295 294 293 293
260 267 275 283 289 293 291 290 290 290 287 284 281 279 276 270 262 255 251 246 240 230 219 217 223 230 233 231 228 232 240 244 247 252 253 253 262 278 287 287 288 293 298 304 308 310 311 311 308 303 300 299 298 297 296 296 295 293 289 286 286 288 290 289 288 288 290 292 295 297 297 296 294 294 294 294 294 296 296 296 295 294 294 294 294
271 279 287 293 295 294 292 292 292 289 286 283 281 279 273 263 255 251 248 242 233 222 217 219 225 228 228 227 231 239 244 245 248 250 250 255 269 282 284 283 287 294 299 304 308 310 311 309 305 302 299 298 296 295 295 295 294 292 290 288 288 291 291 290 290 291 293 295 296 297 296 295 295 296 296 296 296 297 297 295 295 296 296 296 295
280 287 293 295 293 289 288 288 286 285 282 280 279 275 267 257 254 250 243 235 228 222 218 219 222 223 224 228 235 240 242 243 246 250 256 264 275 282 282 284 291 298 301 304 308 310 310 308 304 301 300 298 296 294 294 293 293 292 290 290 290 291 291 292 293 294 295 295 295 295 295 296 298 299 300 300 299 298 297 296 297 298 298 297 297
286 291 293 291 286 283 283 282 281 280 279 278 277 272 262 255 254 249 238 230 223 220 219 222 226 225 226 231 234 234 237 245 253 260 267 272 274 277 282 289 295 299 302 306 308 310 310 308 305 302 300 297 295 294 293 293 293 292 291 291 291 291 292 293 294 295 295 294 294 295 297 299 301 302 301 300 299 299 298 299 300 300 301 300 300
290 292 290 285 281 280 280 280 279 278 275 274 274 268 258 251 246 237 227 221 218 216 218 224 228 226 226 229 232 237 247 257 264 268 272 273 276 281 287 293 297 301 304 307 308 309 309 307 303 301 299 297 296 295 294 293 292 292 292 292 292 292 293 294 294 294 294 294 295 297 299 300 301 302 301 301 301 301 301 302 303 303 304 303 304
291 289 285 281 280 279 279 279 278 276 274 273 271 263 252 245 238 225 216 215 218 220 219 219 223 226 228 232 239 248 260 268 270 269 269 273 281 289 294 298 301 304 307 308 307 308 308 306 303 300 298 299 299 298 297 295 293 293 293 294 294 295 295 293 292 293 294 296 297 299 300 301 303 304 304 304 304 304 304 305 305 306 307 307 309
287 283 280 279 278 277 276 278 279 277 276 275 271 261 248 237 225 215 213 217 220 220 218 219 223 227 230 237 248 260 269 273 271 267 269 275 283 290 296 300 303 306 307 308 307 306 306 305 303 300 298 297 296 294 293 294 296 297 298 297 295 294 293 292 293 294 296 298 299 301 303 304 305 306 306 306 307 307 307 309 309 310 312 313 313
280 278 276 276 275 275 277 279 277 276 276 273 269 263 252 235 217 209 211 216 216 215 219 225 227 229 236 246 258 267 272 271 268 267 273 278 284 292 298 302 304 306 307 308 307 305 304 302 299 295 291 288 286 284 285 290 295 298 298 298 296 295 293 293 295 297 299 300 301 303 305 306 307 308 308 309 310 311 313 315 316 317 318 317 316
274 272 272 273 273 272 274 275 272 270 272 271 263 253 241 229 218 212 211 213 215 221 229 234 234 239 250 259 267 272 272 269 267 270 275 281 288 297 302 304 305 305 306 306 305 304 302 298 292 287 284 282 281 281 284 289 293 294 295 296 298 299 298 297 298 299 300 302 303 304 306 307 308 310 310 311 313 317 320 322 323 323 323 321 318
267 267 269 271 271 269 268 270 269 268 267 259 248 240 233 225 221 220 218 219 226 233 237 240 245 253 262 267 271 272 269 267 268 272 277 284 292 298 301 301 302 303 304 304 304 303 299 293 288 286 285 284 284 285 287 289 289 291 295 299 301 301 299 300 301 300 300 302 303 304 306 308 309 311 312 315 320 324 327 330 330 330 328 325 320
264 266 268 270 271 270 268 266 263 265 263 251 241 242 242 234 229 231 232 234 242 246 248 252 256 261 266 269 271 269 266 266 269 274 280 288 294 297 299 300 301 302 303 304 303 301 297 292 289 287 287 287 287 287 289 289 288 291 298 301 301 301 300 300 300 301 301 302 303 305 307 309 309 312 316 320 325 329 333 336 337 336 334 330 326
264 267 268 268 267 265 263 258 252 252 253 247 239 238 237 233 238 249 255 257 260 262 264 264 264 266 269 271 269 267 266 268 272 277 284 291 295 298 300 301 302 302 303 303 301 299 297 295 293 291 290 289 288 287 287 289 291 295 300 301 301 300 301 301 301 302 302 302 303 306 308 309 310 313 316 320 325 332 337 339 339 339 337 336 333
261 261 259 259 258 255 250 246 242 239 238 237 233 232 234 242 253 261 265 266 267 268 268 268 267 268 269 268 265 265 268 272 276 281 287 292 296 298 299 300 301 302 302 302 300 299 297 295 293 292 291 290 288 288 289 291 294 297 299 299 300 300 301 302 302 302 303 303 304 306 307 307 311 313 315 320 326 331 336 338 338 340 340 340 338
255 253 251 250 251 250 243 238 236 235 233 231 234 242 250 259 266 269 270 272 272 271 270 269 267 267 267 265 266 268 272 276 281 286 290 293 296 297 298 298 300 301 300 300 301 300 297 294 293 292 291 289 288 289 292 293 295 296 297 297 299 300 301 302 302 303 304 304 304 305 304 306 309 311 314 320 323 327 331 334 334 338 341 342 341
251 250 249 249 248 246 241 235 230 229 232 236 244 251 258 265 272 275 275 274 273 273 274 272 271 270 269 268 270 273 277 282 286 289 291 294 296 297 298 298 298 298 297 299 301 300 297 295 293 291 290 289 289 291 293 294 295 295 296 297 299 300 301 302 302 302 304 304 303 303 302 303 307 311 314 318 321 322 326 328 330 334 339 342 343
252 252 252 252 250 247 244 240 235 236 241 246 251 256 260 265 271 273 274 275 275 275 275 274 273 272 272 273 275 279 283 286 288 290 292 294 296 297 298 297 297 297 298 300 301 299 296 294 293 291 290 290 290 291 293 293 293 294 295 297 299 301 302 303 302 301 302 303 300 299 301 304 309 314 316 317 319 320 322 325 327 330 336 341 342
254 253 252 252 254 253 248 243 241 245 251 255 257 260 262 265 267 270 272 274 274 273 273 273 272 273 276 279 282 285 287 288 289 291 294 296 296 296 296 296 296 298 299 300 300 298 295 294 293 292 292 291 290 290 290 290 291 294 296 297 299 301 302 301 300 299 299 299 297 298 304 309 313 316 318 319 320 321 322 323 325 327 333 338 341
252 251 253 254 256 255 250 245 246 252 256 260 262 263 265 267 269 270 271 272 272 272 273 274 275 277 280 283 285 286 287 287 289 292 293 294 294 294 294 295 296 297 299 299 297 296 293 292 294 295 293 291 288 286 286 288 291 294 296 297 299 300 300 298 297 296 295 296 298 301 308 313 315 318 320 320 321 323 324 325 327 329 332 336 339
250 250 251 252 253 254 253 252 253 255 258 260 262 263 265 266 268 269 271 272 273 273 274 275 277 279 282 283 284 286 286 287 289 290 290 291 292 293 294 295 295 295 295 296 296 296 294 293 294 295 293 290 287 283 283 285 289 292 294 296 297 297 295 292 292 292 293 295 301 306 312 317 319 320 321 323 325 326 327 328 330 332 332 333 337
251 253 254 255 257 259 258 256 253 252 254 257 259 260 263 265 267 269 270 271 272 274 275 277 278 280 281 282 283 285 285 286 287 288 289 290 291 292 293 295 295 295 295 295 296 297 298 297 296 295 293 290 287 283 281 282 286 289 292 294 294 292 290 287 287 289 292 297 305 311 315 319 322 322 324 328 330 330 332 333 333 333 333 332 336
254 256 260 262 261 258 254 251 250 250 254 257 260 261 264 267 269 270 271 273 274 277 278 279 280 281 282 282 283 283 284 285 285 286 288 288 289 290 292 293 295 294 294 294 294 296 298 299 298 297 295 292 288 283 279 279 283 287 289 290 289 285 284 284 283 286 293 300 307 313 317 321 325 326 328 332 335 334 336 338 336 335 336 334 336
258 258 261 261 256 251 249 250 253 256 259 262 264 265 267 270 272 273 275 277 279 279 280 280 281 281 281 280 281 281 282 283 284 285 286 286 287 288 290 291 292 291 291 292 294 296 298 300 299 298 297 294 288 281 277 277 281 285 285 284 283 281 280 281 281 286 295 302 308 315 321 325 330 332 332 335 338 337 338 341 342 340 339 338 338
260 260 259 255 249 247 250 254 258 260 261 263 266 269 270 272 275 276 277 278 278 278 278 278 278 278 278 279 280 280 280 281 283 285 286 286 287 288 288 288 289 290 291 293 294 295 297 299 298 297 296 292 284 278 276 276 279 282 281 278 278 277 277 278 281 287 297 305 311 318 324 328 332 336 338 338 340 341 340 343 347 347 343 343 343
257 254 250 247 245 248 253 256 257 259 261 262 267 270 272 274 274 274 274 274 274 275 275 275 277 279 280 281 283 284 284 285 286 286 287 286 285 285 286 286 288 291 293 295 297 297 297 297 297 295 293 288 280 276 275 275 276 277 275 273 273 273 272 274 281 289 298 308 314 319 324 329 332 336 339 339 340 342 344 345 348 350 348 347 348
250 245 243 245 248 251 254 255 256 259 262 264 268 271 274 276 276 275 274 275 276 275 275 276 278 280 282 283 285 286 287 288 288 288 288 288 286 285 285 285 287 290 292 294 297 297 297 296 296 294 290 283 277 274 274 274 272 271 269 268 268 268 268 273 282 290 298 308 316 318 323 329 332 333 336 338 339 342 345 346 349 352 353 352 350
239 237 241 246 250 252 254 256 259 261 264 268 272 276 278 280 280 279 278 279 278 277 278 279 281 283 285 287 289 289 290 292 293 291 290 289 288 288 288 285 283 285 289 292 295 296 296 294 294 292 287 279 273 271 272 271 268 265 265 264 263 262 265 271 280 289 296 304 313 318 321 325 329 329 331 335 338 341 346 348 349 353 356 357 356
241 244 248 252 254 256 258 261 264 267 270 274 277 279 279 280 278 277 277 278 278 279 280 281 282 285 288 290 293 295 296 296 295 293 291 288 288 290 292 288 284 285 290 292 293 294 293 291 291 289 283 275 269 267 267 267 265 261 259 257 256 256 260 266 274 283 292 300 308 315 317 318 322 325 327 331 337 341 345 349 352 354 358 0 1
252 256 259 261 261 262 265 267 268 271 273 274 275 275 274 274 273 272 273 276 278 279 281 282 285 288 290 291 293 295 296 295 293 290 288 284 283 286 289 289 286 288 293 294 293 292 289 287 287 286 280 271 265 262 262 262 261 257 254 251 249 249 254 261 268 276 288 297 303 309 310 310 313 319 322 325 333 340 344 349 352 353 356 1 3
Height
3178 3180 3181 3182 3184 3185 3186 3187 3187 3188 3189 3190 3190 3190 3190 3190 3190 3191 3192 3192 3192 3192 3192 3192 3192 3193 3193 3192 3191 3191 3190 3189 3188 3187 3186 3185 3185 3184 3183 3182 3182 3181 3180 3179 3178 3177 3176 3176 3175 3174 3174 3174 3173 3173 3172 3171 3170 3170 3169 3168 3168 3167 3167 3166 3164 3163 3162 3161 3160 3160 3159 3157 3157 3156 3154 3152 3151 3149 3148 3147 3147 3146 3145 3145 3144
3176 3177 3179 3180 3181 3182 3183 3183 3184 3184 3185 3187 3187 3186 3186 3187 3187 3188 3189 3189 3190 3190 3190 3189 3189 3190 3191 3190 3189 3188 3188 3187 3186 3185 3184 3183 3183 3182 3181 3181 3180 3180 3179 3178 3177 3176 3175 3174 3173 3173 3172 3172 3171 3171 3170 3169 3168 3168 3167 3166 3165 3165 3164 3163 3162 3160 3160 3158 3157 3156 3155 3154 3153 3153 3151 3149 3148 3146 3145 3144 3143 3142 3142 3141 3141
3173 3175 3176 3177 3178 3179 3179 3180 3181 3182 3183 3184 3183 3183 3183 3184 3185 3186 3186 3186 3187 3187 3187 3187 3187 3187 3188 3187 3186 3186 3185 3185 3184 3183 3182 3181 3180 3180 3179 3179 3178 3178 3177 3176 3175 3174 3173 3172 3172 3171 3170 3170 3169 3168 3167 3167 3166 3165 3164 3163 3162 3162 3161 3160 3159 3158 3157 3156 3154 3153 3151 3150 3149 3149 3147 3145 3144 3142 3142 3140 3140 3139 3138 3137 3137
3170 3172 3173 3174 3174 3175 3176 3177 3178 3179 3180 3181 3180 3180 3180 3182 3183 3183 3183 3183 3183 3183 3183 3183 3184 3184 3184 3184 3183 3183 3183 3182 3181 3180 3179 3179 3178 3178 3177 3177 3177 3176 3175 3175 3174 3172 3171 3171 3170 3169 3168 3167 3167 3166 3165 3164 3163 3162 3161 3160 3159 3158 3158 3156 3156 3155 3154 3153 3152 3151 3148 3146 3145 3145 3144 3142 3140 3138 3137 3137 3136 3135 3135 3134 3133
3167 3168 3169 3170 3171 3173 3174 3175 3176 3177 3178 3177 3177 3176 3176 3178 3180 3180 3180 3179 3178 3179 3179 3179 3180 3181 3180 3180 3180 3180 3180 3179 3178 3178 3177 3177 3176 3176 3176 3175 3175 3174 3173 3172 3172 3171 3170 3169 3168 3167 3166 3165 3164 3163 3162 3161 3161 3159 3158 3157 3156 3155 3155 3153 3152 3151 3150 3149 3149 3148 3146 3143 3141 3140 3140 3138 3136 3135 3133 3133 3132 3131 3130 3129 3129
3163 3164 3166 3167 3169 3171 3172 3172 3174 3175 3174 3173 3173 3171 3170 3172 3175 3175 3175 3174 3173 3173 3174 3174 3176 3177 3176 3176 3177 3177 3177 3176 3176 3175 3175 3174 3174 3174 3173 3173 3173 3172 3171 3170 3170 3169 3168 3167 3166 3165 3163 3162 3162 3161 3160 3159 3158 3157 3155 3154 3153 3152 3151 3150 3149 3147 3147 3146 3145 3145 3144 3141 3138 3136 3136 3135 3133 3131 3130 3129 3128 3127 3126 3125 3124
3159 3161 3163 3165 3166 3168 3169 3170 3170 3170 3169 3169 3169 3167 3166 3167 3169 3170 3169 3168 3168 3169 3169 3170 3171 3172 3172 3173 3173 3174 3174 3173 3173 3173 3172 3172 3172 3171 3171 3171 3170 3169 3169 3168 3167 3166 3165 3164 3163 3162 3161 3160 3159 3158 3157 3156 3155 3154 3153 3151 3150 3149 3148 3147 3146 3144 3143 3142 3142 3141 3140 3139 3136 3134 3133 3132 3130 3129 3128 3125 3124 3123 3122 3120 3119
3156 3158 3160 3162 3163 3164 3166 3166 3166 3166 3166 3166 3165 3164 3164 3164 3165 3165 3164 3163 3163 3164 3165 3166 3167 3167 3168 3169 3170 3170 3170 3170 3170 3170 3170 3170 3169 3169 3169 3168 3167 3167 3166 3165 3164 3163 3162 3161 3160 3159 3158 3157 3156 3155 3154 3153 3152 3151 3150 3149 3147 3146 3145 3144 3143 3142 3140 3139 3138 3138 3137 3135 3134 3133 3131 3130 3128 3126 3125 3122 3120 3119 3118 3116 3115
3153 3155 3157 3157 3159 3161 3162 3162 3163 3163 3163 3162 3161 3160 3161 3161 3160 3161 3160 3159 3159 3160 3160 3161 3162 3163 3165 3166 3167 3167 3167 3167 3167 3167 3167 3167 3167 3166 3166 3165 3165 3164 3163 3163 3162 3161 3159 3158 3157 3156 3155 3154 3153 3153 3152 3151 3150 3148 3147 3146 3144 3143 3142 3141 3140 3139 3138 3136 3135 3134 3133 3132 3131 3130 3128 3127 3125 3123 3121 3119 3117 3116 3114 3112 3111
3151 3152 3153 3153 3155 3156 3157 3158 3159 3159 3158 3157 3157 3156 3157 3157 3156 3156 3155 3155 3156 3156 3157 3157 3158 3159 3161 3163 3163 3164 3164 3164 3164 3164 3164 3164 3164 3164 3163 3162 3162 3161 3160 3160 3159 3158 3157 3155 3154 3153 3152 3151 3150 3149 3149 3148 3147 3145 3144 3143 3142 3140 3139 3138 3137 3136 3134 3133 3132 3131 3129 3128 3127 3126 3125 3123 3121 3119 3118 3115 3113 3112 3110 3108 3106
3147 3148 3149 3149 3151 3152 3152 3152 3154 3154 3154 3153 3153 3153 3152 3152 3151 3151 3151 3152 3152 3153 3154 3154 3155 3156 3158 3159 3160 3160 3161 3161 3161 3161 3161 3161 3161 3160 3160 3159 3159 3158 3158 3157 3156 3155 3154 3153 3151 3150 3148 3147 3146 3146 3145 3144 3143 3142 3141 3140 3139 3137 3136 3135 3134 3132 3131 3129 3128 3127 3125 3124 3123 3122 3121 3119 3118 3116 3114 3112 3109 3107 3106 3103 3101
3144 3144 3145 3146 3147 3148 3148 3148 3149 3150 3150 3149 3149 3149 3148 3147 3147 3147 3147 3147 3148 3149 3149 3150 3152 3153 3154 3155 3156 3157 3158 3158 3158 3158 3158 3158 3157 3157 3157 3156 3156 3156 3155 3154 3153 3152 3151 3150 3148 3147 3145 3144 3143 3142 3141 3140 3140 3139 3138 3137 3135 3134 3133 3131 3130 3129 3127 3125 3124 3123 3122 3120 3119 3118 3117 3115 3113 3111 3110 3108 3106 3103 3101 3099 3097
3140 3141 3142 3143 3143 3144 3144 3144 3145 3145 3145 3145 3145 3145 3144 3144 3143 3143 3143 3143 3143 3143 3143 3145 3147 3148 3150 3152 3153 3154 3154 3154 3155 3155 3154 3154 3154 3154 3154 3153 3153 3152 3152 3151 3150 3149 3147 3146 3145 3144 3143 3141 3139 3139 3137 3136 3135 3135 3134 3132 3131 3130 3129 3127 3125 3124 3123 3121 3119 3119 3118 3116 3115 3114 3113 3111 3109 3107 3105 3103 3101 3099 3097 3095 3093
3138 3138 3139 3139 3140 3140 3140 3141 3141 3141 3141 3140 3140 3140 3140 3140 3140 3139 3139 3138 3137 3138 3139 3140 3142 3144 3146 3148 3149 3150 3151 3151 3151 3151 3151 3151 3151 3150 3150 3150 3150 3149 3149 3148 3146 3145 3144 3143 3141 3140 3139 3137 3136 3135 3134 3132 3130 3129 3129 3127 3126 3125 3124 3123 3122 3121 3119 3117 3115 3114 3114 3112 3111 3110 3109 3106 3104 3102 3100 3097 3095 3094 3093 3090 3088
3134 3135 3135 3136 3136 3137 3137 3137 3137 3137 3137 3136 3136 3136 3136 3136 3136 3135 3134 3133 3133 3134 3135 3136 3138 3140 3141 3144 3146 3147 3147 3148 3148 3148 3148 3148 3147 3146 3146 3146 3146 3146 3145 3145 3143 3142 3140 3139 3138 3136 3135 3134 3132 3131 3130 3128 3126 3125 3124 3122 3121 3120 3119 3119 3118 3117 3115 3113 3111 3110 3109 3108 3106 3105 3104 3102 3100 3097 3095 3092 3090 3089 3087 3084 3082
3131 3131 3132 3132 3133 3133 3133 3133 3133 3133 3132 3132 3132 3132 3132 3132 3132 3131 3129 3129 3130 3130 3131 3132 3134 3136 3137 3140 3142 3143 3144 3144 3145 3145 3145 3144 3143 3143 3143 3143 3143 3142 3142 3141 3139 3138 3136 3135 3134 3133 3132 3130 3129 3127 3126 3124 3122 3120 3119 3118 3117 3116 3115 3114 3113 3112 3111 3109 3107 3105 3104 3103 3102 3101 3100 3098 3095 3092 3089 3087 3086 3084 3081 3078 3076
3127 3128 3128 3128 3129 3129 3129 3129 3129 3129 3128 3128 3128 3129 3128 3128 3128 3127 3126 3126 3126 3126 3127 3128 3129 3131 3134 3136 3137 3139 3140 3140 3141 3141 3141 3140 3140 3139 3140 3139 3139 3138 3138 3137 3136 3134 3132 3131 3130 3129 3127 3126 3124 3123 3121 3119 3118 3116 3115 3114 3113 3112 3111 3110 3108 3107 3107 3106 3104 3102 3100 3099 3098 3096 3095 3093 3090 3086 3083 3081 3081 3080 3076 3073 3071
3124 3124 3124 3125 3125 3126 3126 3126 3125 3125 3124 3125 3125 3125 3124 3124 3123 3123 3122 3122 3122 3122 3123 3124 3125 3127 3130 3131 3133 3135 3136 3136 3137 3138 3138 3137 3137 3137 3137 3136 3136 3135 3134 3133 3132 3130 3128 3127 3126 3124 3122 3121 3120 3118 3117 3115 3113 3112 3111 3109 3108 3108 3107 3105 3103 3102 3101 3101 3100 3098 3097 3096 3094 3092 3091 3088 3085 3082 3078 3077 3076 3074 3072 3069 3067
3120 3121 3121 3121 3122 3122 3122 3122 3121 3121 3121 3121 3120 3120 3120 3119 3119 3118 3118 3119 3118 3117 3118 3120 3122 3124 3126 3127 3129 3130 3131 3132 3132 3133 3134 3134 3134 3134 3134 3133 3133 3132 3130 3129 3128 3126 3124 3122 3121 3120 3118 3116 3115 3114 3113 3111 3110 3108 3107 3105 3104 3103 3102 3100 3099 3098 3097 3096 3095 3093 3093 3092 3090 3088 3086 3084 3081 3078 3075 3073 3072 3070 3067 3065 3062
3117 3117 3117 3118 3118 3119 3119 3118 3118 3117 3117 3116 3116 3116 3115 3115 3114 3114 3114 3115 3114 3113 3114 3116 3118 3120 3121 3123 3124 3125 3126 3127 3128 3129 3131 3131 3131 3131 3131 3131 3130 3129 3128 3126 3124 3122 3120 3118 3116 3115 3114 3112 3110 3109 3108 3107 3106 3104 3103 3101 3100 3099 3098 3096 3095 3094 3093 3092 3091 3090 3089 3087 3085 3083 3080 3078 3076 3074 3072 3069 3068 3066 3063 3060 3058
3113 3113 3114 3114 3115 3115 3115 3115 3114 3113 3113 3112 3112 3111 3111 3110 3110 3110 3110 3111 3110 3110 3111 3112 3114 3116 3117 3118 3120 3121 3122 3123 3124 3126 3128 3128 3128 3129 3128 3128 3127 3126 3124 3123 3121 3118 3116 3114 3112 3111 3109 3107 3106 3104 3103 3102 3101 3100 3099 3097 3096 3094 3094 3092 3091 3090 3089 3088 3087 3086 3085 3083 3080 3078 3076 3074 3071 3069 3068 3066 3064 3062 3059 3056 3053
3109 3110 3110 3111 3112 3112 3112 3111 3110 3110 3109 3108 3108 3107 3107 3106 3106 3105 3105 3106 3106 3107 3108 3109 3110 3112 3113 3114 3116 3118 3119 3120 3122 3123 3124 3125 3125 3126 3126 3125 3124 3123 3121 3119 3117 3115 3113 3110 3108 3106 3105 3103 3101 3100 3099 3098 3097 3095 3094 3093 3092 3090 3089 3088 3087 3086 3085 3084 3083 3082 3081 3079 3076 3074 3072 3069 3067 3065 3063 3061 3060 3057 3055 3052 3049
3105 3106 3107 3107 3108 3109 3109 3108 3107 3106 3105 3104 3103 3102 3102 3102 3101 3101 3101 3102 3103 3104 3104 3105 3106 3108 3108 3110 3113 3115 3116 3117 3119 3120 3121 3122 3122 3122 3122 3121 3120 3119 3117 3116 3114 3112 3109 3107 3104 3102 3101 3099 3097 3096 3094 3093 3092 3091 3090 3088 3087 3086 3085 3084 3083 3082 3080 3079 3078 3077 3076 3074 3071 3069 3067 3064 3062 3060 3058 3056 3055 3053 3050 3047 3044
3102 3103 3104 3104 3104 3105 3105 3104 3103 3102 3100 3099 3098 3097 3097 3097 3097 3097 3097 3098 3099 3099 3100 3101 3103 3104 3106 3108 3111 3112 3112 3113 3115 3117 3117 3118 3119 3118 3118 3117 3116 3115 3113 3112 3110 3108 3105 3103 3101 3099 3097 3095 3093 3092 3090 3089 3088 3086 3085 3084 3083 3082 3082 3081 3080 3078 3077 3075 3074 3072 3070 3068 3066 3064 3062 3060 3057 3055 3053 3051 3049 3048 3045 3042 3040
3099 3100 3101 3101 3101 3101 3100 3100 3099 3097 3096 3095 3093 3093 3092 3091 3092 3093 3093 3094 3095 3095 3096 3097 3099 3101 3103 3105 3107 3108 3109 3112 3113 3114 3114 3114 3115 3115 3114 3113 3112 3111 3109 3107 3105 3103 3101 3099 3097 3095 3093 3091 3089 3087 3086 3085 3083 3082 3081 3080 3079 3078 3077 3076 3075 3074 3073 3071 3069 3067 3065 3063 3061 3059 3057 3055 3053 3051 3048 3046 3044 3043 3041 3037 3034
3095 3096 3096 3097 3097 3097 3096 3095 3094 3093 3092 3090 3089 3088 3087 3087 3087 3089 3089 3089 3090 3091 3092 3094 3097 3098 3100 3103 3104 3106 3108 3110 3110 3110 3111 3111 3111 3111 3110 3109 3108 3107 3105 3103 3101 3099 3097 3095 3093 3091 3089 3087 3085 3083 3082 3081 3080 3078 3077 3076 3075 3074 3073 3072 3071 3070 3068 3067 3065 3063 3061 3059 3057 3055 3052 3050 3048 3046 3044 3042 3040 3038 3036 3032 3029
3091 3091 3092 3092 3093 3093 3092 3091 3090 3089 3088 3087 3085 3084 3083 3082 3083 3084 3084 3085 3086 3088 3090 3092 3095 3097 3098 3101 3102 3104 3106 3106 3106 3106 3107 3108 3108 3107 3107 3105 3104 3103 3101 3099 3097 3094 3092 3090 3088 3086 3085 3083 3081 3079 3078 3077 3076 3075 3074 3073 3072 3070 3069 3068 3067 3065 3064 3062 3061 3059 3057 3055 3053 3051 3049 3047 3044 3042 3040 3037 3035 3033 3031 3028 3025
3087 3088 3088 3089 3089 3089 3088 3087 3086 3085 3084 3083 3081 3080 3079 3079 3080 3080 3081 3082 3084 3085 3088 3091 3093 3094 3096 3098 3100 3101 3102 3102 3103 3103 3103 3103 3103 3103 3102 3102 3100 3099 3097 3095 3092 3090 3088 3086 3084 3082 3080 3079 3077 3075 3074 3073 3072 3071 3070 3069 3068 3067 3066 3064 3062 3061 3060 3058 3057 3055 3053 3051 3049 3047 3045 3043 3041 3038 3036 3033 3030 3028 3026 3023 3021
3084 3085 3085 3085 3085 3084 3084 3083 3082 3081 3080 3079 3078 3077 3077 3077 3078 3078 3079 3081 3083 3084 3087 3089 3091 3092 3094 3096 3098 3099 3099 3099 3100 3100 3099 3099 3098 3098 3097 3097 3096 3094 3093 3091 3088 3085 3083 3082 3080 3079 3077 3075 3074 3072 3070 3069 3068 3067 3066 3066 3064 3063 3062 3060 3059 3057 3056 3055 3053 3052 3050 3048 3046 3044 3041 3039 3037 3034 3032 3029 3026 3024 3022 3020 3017
3081 3081 3081 3081 3081 3080 3080 3080 3079 3078 3077 3076 3075 3074 3074 3074 3075 3077 3079 3080 3082 3084 3086 3088 3089 3090 3092 3094 3095 3096 3096 3095 3096 3096 3096 3095 3095 3094 3094 3092 3091 3089 3088 3086 3084 3081 3079 3078 3077 3075 3074 3073 3071 3069 3067 3066 3065 3064 3063 3062 3061 3059 3058 3057 3055 3054 3053 3052 3050 3048 3046 3044 3042 3040 3037 3035 3033 3031 3028 3026 3023 3021 3019 3016 3014
3077 3077 3077 3077 3077 3077 3077 3076 3076 3075 3074 3073 3073 3073 3073 3073 3074 3075 3077 3079 3081 3083 3085 3086 3087 3089 3090 3091 3092 3092 3092 3092 3092 3092 3092 3092 3091 3091 3090 3089 3087 3085 3083 3081 3079 3078 3076 3075 3074 3072 3071 3070 3069 3067 3065 3063 3062 3061 3060 3059 3057 3056 3055 3054 3052 3051 3050 3048 3047 3044 3042 3040 3038 3036 3034 3032 3030 3028 3025 3023 3020 3018 3016 3013 3010
3073 3073 3073 3073 3074 3074 3073 3073 3072 3072 3071 3070 3071 3071 3072 3073 3073 3074 3076 3079 3081 3082 3083 3084 3086 3087 3088 3088 3089 3089 3088 3088 3088 3088 3088 3088 3088 3087 3086 3084 3083 3081 3079 3077 3075 3074 3072 3071 3070 3069 3068 3067 3065 3064 3062 3061 3060 3058 3057 3056 3055 3053 3052 3051 3049 3048 3047 3045 3043 3041 3039 3037 3035 3033 3031 3029 3027 3025 3023 3021 3018 3016 3013 3011 3008
3070 3069 3069 3070 3071 3071 3070 3070 3069 3069 3069 3068 3069 3070 3071 3072 3073 3074 3075 3077 3079 3080 3082 3083 3084 3084 3085 3085 3085 3085 3084 3084 3084 3084 3084 3084 3084 3082 3081 3080 3078 3076 3074 3072 3071 3070 3069 3068 3067 3065 3064 3063 3062 3060 3059 3058 3057 3055 3055 3053 3052 3050 3049 3047 3046 3045 3044 3042 3040 3038 3036 3034 3032 3030 3029 3027 3025 3023 3021 3019 3016 3014 3011 3009 3007
3067 3066 3066 3067 3067 3067 3067 3067 3067 3067 3067 3067 3068 3069 3070 3071 3072 3073 3074 3076 3077 3078 3080 3081 3081 3081 3081 3081 3081 3081 3081 3081 3081 3081 3081 3080 3079 3078 3076 3074 3073 3071 3069 3068 3066 3066 3065 3064 3063 3062 3060 3059 3058 3056 3055 3055 3054 3053 3051 3050 3049 3047 3046 3044 3043 3042 3040 3039 3037 3035 3033 3031 3029 3028 3027 3025 3023 3021 3019 3017 3014 3012 3010 3007 3005
3064 3064 3064 3064 3064 3065 3065 3065 3065 3066 3066 3067 3068 3069 3070 3071 3072 3072 3073 3074 3075 3076 3076 3077 3077 3077 3077 3077 3077 3077 3077 3077 3077 3077 3076 3075 3074 3073 3071 3069 3067 3066 3065 3064 3063 3062 3061 3060 3059 3058 3057 3056 3054 3053 3052 3051 3050 3049 3048 3047 3046 3044 3043 3041 3040 3039 3037 3036 3034 3032 3031 3029 3027 3026 3025 3023 3022 3020 3018 3016 3013 3011 3008 3006 3003
3061 3061 3061 3062 3062 3063 3063 3063 3063 3064 3065 3066 3067 3068 3069 3070 3070 3071 3071 3071 3072 3072 3072 3073 3073 3073 3074 3074 3074 3074 3074 3074 3073 3072 3072 3071 3070 3069 3067 3065 3063 3061 3060 3059 3059 3058 3057 3056 3055 3054 3053 3052 3051 3050 3049 3048 3047 3046 3045 3044 3043 3042 3040 3039 3037 3036 3034 3033 3031 3029 3028 3027 3026 3025 3023 3022 3020 3018 3016 3015 3012 3010 3007 3005 3002
3059 3059 3059 3060 3060 3061 3061 3061 3062 3062 3063 3064 3066 3067 3067 3068 3068 3068 3068 3068 3068 3068 3068 3069 3069 3070 3070 3070 3070 3070 3070 3070 3069 3068 3067 3066 3065 3065 3063 3061 3059 3058 3056 3055 3055 3055 3054 3053 3052 3051 3050 3049 3048 3047 3046 3045 3044 3043 3042 3041 3040 3039 3037 3036 3034 3033 3031 3030 3028 3027 3026 3025 3024 3023 3022 3020 3018 3017 3015 3013 3011 3009 3006 3004 3001
3057 3057 3058 3058 3058 3059 3059 3060 3060 3061 3062 3063 3064 3065 3065 3065 3065 3065 3065 3065 3065 3065 3065 3065 3066 3066 3066 3067 3067 3066 3066 3065 3064 3063 3063 3062 3061 3060 3058 3057 3056 3055 3053 3052 3052 3051 3050 3049 3049 3048 3047 3046 3045 3044 3043 3042 3041 3040 3039 3038 3037 3036 3034 3033 3031 3030 3028 3027 3026 3025 3025 3024 3023 3022 3020 3019 3017 3015 3014 3012 3010 3008 3006 3003 3001
3055 3056 3056 3056 3057 3057 3057 3058 3059 3060 3060 3061 3062 3062 3062 3062 3063 3062 3062 3062 3062 3062 3061 3062 3062 3062 3062 3063 3063 3062 3061 3061 3060 3059 3058 3058 3057 3055 3054 3053 3052 3051 3050 3049 3048 3048 3047 3046 3045 3044 3043 3043 3042 3041 3040 3039 3038 3038 3037 3035 3034 3033 3032 3030 3029 3027 3026 3025 3025 3024 3023 3022 3021 3020 3019 3017 3015 3014 3012 3010 3009 3007 3005 3002 3000
3053 3054 3054 3054 3055 3055 3055 3056 3056 3057 3058 3059 3059 3059 3059 3059 3060 3059 3059 3059 3059 3059 3058 3058 3059 3058 3058 3059 3059 3058 3058 3057 3056 3055 3054 3053 3052 3051 3051 3049 3048 3047 3047 3046 3045 3045 3044 3042 3042 3041 3040 3039 3038 3038 3037 3036 3036 3035 3034 3032 3031 3030 3029 3027 3026 3025 3024 3024 3023 3022 3021 3021 3020 3018 3017 3015 3014 3012 3010 3009 3007 3006 3004 3002 3000
3050 3051 3051 3052 3052 3052 3053 3053 3054 3054 3055 3055 3056 3056 3056 3056 3056 3056 3056 3056 3056 3056 3055 3055 3055 3055 3055 3055 3055 3055 3054 3053 3052 3051 3050 3049 3049 3048 3047 3046 3045 3044 3043 3043 3042 3042 3041 3039 3038 3037 3037 3036 3035 3035 3034 3033 3032 3031 3030 3029 3028 3027 3026 3025 3024 3023 3023 3022 3021 3021 3020 3019 3018 3017 3015 3014 3012 3010 3009 3007 3006 3004 3002 3001 2999
3046 3047 3048 3048 3049 3049 3050 3051 3051 3052 3052 3052 3052 3053 3053 3053 3053 3053 3053 3053 3053 3052 3052 3052 3051 3052 3052 3052 3051 3051 3050 3049 3048 3047 3047 3046 3045 3044 3044 3043 3042 3042 3041 3040 3039 3039 3038 3037 3036 3035 3034 3033 3032 3031 3031 3030 3029 3028 3027 3027 3026 3025 3024 3023 3023 3022 3022 3021 3020 3019 3019 3018 3016 3015 3013 3012 3010 3009 3007 3006 3005 3003 3002 3000 2998
3043 3044 3044 3045 3046 3046 3047 3047 3047 3048 3048 3049 3049 3049 3050 3050 3050 3050 3050 3050 3050 3049 3049 3049 3048 3048 3048 3048 3047 3046 3046 3045 3044 3044 3043 3043 3042 3041 3040 3040 3039 3039 3038 3037 3036 3035 3035 3034 3033 3032 3030 3029 3028 3028 3027 3027 3026 3026 3025 3024 3024 3023 3022 3022 3021 3021 3020 3020 3019 3018 3017 3016 3015 3014 3012 3010 3009 3008 3006 3005 3003 3002 3001 2999 2998
3040 3041 3042 3042 3042 3043 3043 3044 3044 3045 3045 3045 3046 3046 3047 3047 3047 3047 3047 3047 3047 3046 3046 3045 3044 3044 3044 3043 3043 3043 3042 3041 3041 3040 3040 3039 3039 3038 3037 3036 3036 3035 3035 3034 3033 3032 3032 3031 3030 3029 3027 3026 3025 3024 3024 3024 3023 3023 3023 3022 3021 3021 3020 3020 3020 3019 3019 3018 3017 3017 3016 3015 3014 3012 3011 3009 3008 3006 3005 3004 3002 3001 3000 2998 2997
3037 3038 3039 3039 3039 3039 3040 3040 3041 3042 3042 3042 3042 3043 3043 3043 3043 3043 3043 3043 3043 3043 3042 3041 3040 3040 3040 3039 3039 3039 3039 3038 3037 3037 3036 3036 3035 3034 3034 3033 3033 3032 3032 3031 3030 3029 3028 3027 3026 3025 3024 3023 3022 3022 3021 3021 3021 3021 3020 3020 3019 3019 3019 3019 3018 3018 3017 3017 3016 3015 3014 3013 3012 3011 3010 3008 3007 3006 3004 3003 3002 3001 2999 2998 2997
3034 3034 3035 3035 3035 3036 3037 3037 3038 3039 3039 3039 3039 3039 3040 3040 3040 3040 3040 3039 3039 3039 3038 3037 3036 3036 3036 3035 3035 3035 3035 3034 3033 3033 3032 3032 3031 3031 3030 3030 3029 3029 3028 3028 3027 3026 3025 3024 3023 3022 3021 3020 3020 3019 3019 3019 3018 3018 3018 3018 3017 3017 3017 3017 3017 3016 3016 3015 3015 3014 3013 3012 3011 3010 3009 3007 3006 3005 3004 3003 3001 3000 2999 2997 2996
3030 3031 3031 3032 3032 3033 3033 3034 3035 3035 3036 3036 3036 3036 3036 3036 3036 3036 3036 3035 3035 3035 3034 3033 3033 3032 3032 3032 3031 3031 3031 3030 3030 3029 3028 3028 3028 3028 3027 3027 3026 3025 3024 3024 3023 3022 3022 3021 3020 3019 3018 3018 3017 3017 3017 3016 3016 3016 3016 3015 3015 3015 3015 3015 3015 3015 3015 3014 3013 3013 3012 3011 3010 3009 3008 3007 3005 3004 3003 3002 3001 3000 2998 2997 2996
3027 3028 3028 3029 3030 3030 3031 3031 3032 3032 3032 3032 3032 3032 3032 3032 3032 3032 3031 3031 3031 3031 3031 3030 3029 3029 3028 3028 3028 3027 3027 3026 3026 3025 3025 3024 3024 3024 3024 3023 3022 3021 3020 3020 3019 3019 3018 3018 3017 3016 3016 3015 3015 3015 3014 3014 3014 3014 3013 3013 3013 3014 3014 3014 3014 3013 3013 3013 3012 3011 3011 3010 3009 3008 3007 3006 3005 3004 3002 3001 3000 2999 2998 2997 2996
3024 3025 3026 3026 3027 3028 3028 3029 3029 3029 3029 3029 3029 3029 3028 3028 3028 3028 3027 3027 3027 3027 3027 3027 3026 3026 3025 3025 3024 3024 3023 3023 3023 3022 3021 3021 3020 3020 3020 3019 3019 3018 3017 3016 3016 3015 3015 3014 3014 3014 3013 3012 3012 3012 3012 3012 3012 3011 3011 3011 3012 3012 3012 3012 3012 3012 3011 3011 3011 3010 3009 3009 3008 3007 3006 3005 3004 3003 3002 3001 3000 2999 2998 2997 2996
3022 3023 3023 3024 3025 3025 3025 3026 3026 3026 3026 3026 3025 3025 3025 3025 3025 3025 3025 3024 3024 3024 3024 3024 3023 3023 3022 3022 3021 3020 3020 3020 3019 3019 3018 3017 3016 3016 3016 3015 3015 3014 3013 3013 3012 3012 3012 3011 3011 3011 3010 3010 3010 3010 3010 3010 3010 3010 3010 3010 3010 3010 3010 3010 3010 3010 3010 3010 3009 3009 3008 3008 3007 3006 3005 3005 3004 3003 3002 3001 3000 2999 2998 2997 2996
3020 3020 3021 3021 3022 3022 3022 3023 3023 3023 3023 3023 3023 3023 3022 3023 3023 3022 3022 3022 3022 3021 3021 3021 3020 3020 3020 3019 3018 3018 3017 3017 3016 3016 3015 3014 3013 3012 3012 3011 3011 3010 3010 3009 3009 3009 3008 3008 3008 3008 3007 3007 3007 3007 3007 3007 3008 3008 3008 3008 3008 3008 3009 3009 3009 3009 3009 3008 3008 3008 3007 3006 3006 3005 3005 3004 3003 3002 3001 3000 2999 2999 2998 2997 2996